Year,Month,Day,Hour,Minute,Value (Times are PST for temperature in C)
2019,08,04,00,00,15.50
2019,08,04,00,01,15.50
2019,08,04,00,02,15.40
2019,08,04,00,03,15.40
2019,08,04,00,04,15.40
2019,08,04,00,05,15.40
2019,08,04,00,06,15.30
2019,08,04,00,07,15.30
2019,08,04,00,08,15.30
2019,08,04,00,09,15.30
2019,08,04,00,10,15.20
2019,08,04,00,11,15.20
2019,08,04,00,12,15.20
2019,08,04,00,13,15.20
2019,08,04,00,14,15.10
2019,08,04,00,15,15.10
2019,08,04,00,16,15.10
2019,08,04,00,17,15.00
2019,08,04,00,18,15.00
2019,08,04,00,19,14.90
2019,08,04,00,20,14.90
2019,08,04,00,21,14.90
2019,08,04,00,22,14.90
2019,08,04,00,23,14.80
2019,08,04,00,24,14.80
2019,08,04,00,25,14.80
2019,08,04,00,26,14.80
2019,08,04,00,27,14.80
2019,08,04,00,28,14.70
2019,08,04,00,29,14.70
2019,08,04,00,30,14.70
2019,08,04,00,31,14.70
2019,08,04,00,32,14.70
2019,08,04,00,33,14.70
2019,08,04,00,34,14.60
2019,08,04,00,35,14.60
2019,08,04,00,36,14.60
2019,08,04,00,37,14.60
2019,08,04,00,38,14.60
2019,08,04,00,39,14.60
2019,08,04,00,40,14.60
2019,08,04,00,41,14.50
2019,08,04,00,42,14.50
2019,08,04,00,43,14.50
2019,08,04,00,44,14.50
2019,08,04,00,45,14.50
2019,08,04,00,46,14.50
2019,08,04,00,47,14.40
2019,08,04,00,48,14.40
2019,08,04,00,49,14.40
2019,08,04,00,50,14.40
2019,08,04,00,51,14.40
2019,08,04,00,52,14.30
2019,08,04,00,53,14.30
2019,08,04,00,54,14.30
2019,08,04,00,55,14.30
2019,08,04,00,56,14.30
2019,08,04,00,57,14.30
2019,08,04,00,58,14.30
2019,08,04,00,59,14.30
2019,08,04,01,00,14.20
2019,08,04,01,01,14.20
2019,08,04,01,02,14.20
2019,08,04,01,03,14.20
2019,08,04,01,04,14.10
2019,08,04,01,05,14.10
2019,08,04,01,06,14.10
2019,08,04,01,07,14.10
2019,08,04,01,08,14.10
2019,08,04,01,09,14.10
2019,08,04,01,10,14.00
2019,08,04,01,11,14.00
2019,08,04,01,12,14.00
2019,08,04,01,13,14.00
2019,08,04,01,14,14.00
2019,08,04,01,15,13.90
2019,08,04,01,16,13.90
2019,08,04,01,17,13.90
2019,08,04,01,18,13.90
2019,08,04,01,19,13.90
2019,08,04,01,20,13.90
2019,08,04,01,21,13.80
2019,08,04,01,22,13.80
2019,08,04,01,23,13.80
2019,08,04,01,24,13.80
2019,08,04,01,25,13.80
2019,08,04,01,26,13.80
2019,08,04,01,27,13.80
2019,08,04,01,28,13.70
2019,08,04,01,29,13.70
2019,08,04,01,30,13.70
2019,08,04,01,31,13.70
2019,08,04,01,32,13.70
2019,08,04,01,33,13.70
2019,08,04,01,34,13.70
2019,08,04,01,35,13.60
2019,08,04,01,36,13.60
2019,08,04,01,37,13.60
2019,08,04,01,38,13.60
2019,08,04,01,39,13.60
2019,08,04,01,40,13.60
2019,08,04,01,41,13.60
2019,08,04,01,42,13.60
2019,08,04,01,43,13.60
2019,08,04,01,44,13.60
2019,08,04,01,45,13.60
2019,08,04,01,46,13.60
2019,08,04,01,47,13.60
2019,08,04,01,48,13.60
2019,08,04,01,49,13.60
2019,08,04,01,50,13.60
2019,08,04,01,51,13.60
2019,08,04,01,52,13.60
2019,08,04,01,53,13.60
2019,08,04,01,54,13.60
2019,08,04,01,55,13.60
2019,08,04,01,56,13.60
2019,08,04,01,57,13.60
2019,08,04,01,58,13.60
2019,08,04,01,59,13.60
2019,08,04,02,00,13.50
2019,08,04,02,01,13.50
2019,08,04,02,02,13.60
2019,08,04,02,03,13.60
2019,08,04,02,04,13.60
2019,08,04,02,05,13.60
2019,08,04,02,06,13.50
2019,08,04,02,07,13.50
2019,08,04,02,08,13.50
2019,08,04,02,09,13.50
2019,08,04,02,10,13.50
2019,08,04,02,11,13.50
2019,08,04,02,12,13.50
2019,08,04,02,13,13.50
2019,08,04,02,14,13.50
2019,08,04,02,15,13.50
2019,08,04,02,16,13.50
2019,08,04,02,17,13.50
2019,08,04,02,18,13.50
2019,08,04,02,19,13.50
2019,08,04,02,20,13.60
2019,08,04,02,21,13.60
2019,08,04,02,22,13.60
2019,08,04,02,23,13.60
2019,08,04,02,24,13.70
2019,08,04,02,25,13.70
2019,08,04,02,26,13.70
2019,08,04,02,27,13.70
2019,08,04,02,28,13.70
2019,08,04,02,29,13.70
2019,08,04,02,30,13.70
2019,08,04,02,31,13.70
2019,08,04,02,32,13.70
2019,08,04,02,33,13.70
2019,08,04,02,34,13.70
2019,08,04,02,35,13.70
2019,08,04,02,36,13.70
2019,08,04,02,37,13.70
2019,08,04,02,38,13.70
2019,08,04,02,39,13.80
2019,08,04,02,40,13.80
2019,08,04,02,41,13.80
2019,08,04,02,42,13.80
2019,08,04,02,43,13.80
2019,08,04,02,44,13.80
2019,08,04,02,45,13.80
2019,08,04,02,46,13.90
2019,08,04,02,47,13.90
2019,08,04,02,48,13.90
2019,08,04,02,49,13.90
2019,08,04,02,50,14.00
2019,08,04,02,51,14.00
2019,08,04,02,52,14.00
2019,08,04,02,53,14.00
2019,08,04,02,54,14.00
2019,08,04,02,55,14.10
2019,08,04,02,56,14.10
2019,08,04,02,57,14.10
2019,08,04,02,58,14.10
2019,08,04,02,59,14.10
2019,08,04,03,00,14.10
2019,08,04,03,01,14.10
2019,08,04,03,02,14.10
2019,08,04,03,03,14.20
2019,08,04,03,04,14.20
2019,08,04,03,05,14.30
2019,08,04,03,06,14.30
2019,08,04,03,07,14.30
2019,08,04,03,08,14.40
2019,08,04,03,09,14.40
2019,08,04,03,10,14.40
2019,08,04,03,11,14.50
2019,08,04,03,12,14.50
2019,08,04,03,13,14.50
2019,08,04,03,14,14.50
2019,08,04,03,15,14.50
2019,08,04,03,16,14.50
2019,08,04,03,17,14.50
2019,08,04,03,18,14.50
2019,08,04,03,19,14.50
2019,08,04,03,20,14.50
2019,08,04,03,21,14.50
2019,08,04,03,22,14.50
2019,08,04,03,23,14.40
2019,08,04,03,24,14.40
2019,08,04,03,25,14.40
2019,08,04,03,26,14.40
2019,08,04,03,27,14.40
2019,08,04,03,28,14.40
2019,08,04,03,29,14.40
2019,08,04,03,30,14.40
2019,08,04,03,31,14.40
2019,08,04,03,32,14.40
2019,08,04,03,33,14.40
2019,08,04,03,34,14.40
2019,08,04,03,35,14.40
2019,08,04,03,36,14.40
2019,08,04,03,37,14.40
2019,08,04,03,38,14.40
2019,08,04,03,39,14.40
2019,08,04,03,40,14.40
2019,08,04,03,41,14.40
2019,08,04,03,42,14.40
2019,08,04,03,43,14.40
2019,08,04,03,44,14.40
2019,08,04,03,45,14.40
2019,08,04,03,46,14.40
2019,08,04,03,47,14.40
2019,08,04,03,48,14.40
2019,08,04,03,49,14.40
2019,08,04,03,50,14.40
2019,08,04,03,51,14.40
2019,08,04,03,52,14.40
2019,08,04,03,53,14.40
2019,08,04,03,54,14.40
2019,08,04,03,55,14.40
2019,08,04,03,56,14.40
2019,08,04,03,57,14.40
2019,08,04,03,58,14.40
2019,08,04,03,59,14.40
2019,08,04,04,00,14.40
2019,08,04,04,01,14.30
2019,08,04,04,02,14.30
2019,08,04,04,03,14.30
2019,08,04,04,04,14.30
2019,08,04,04,05,14.30
2019,08,04,04,06,14.30
2019,08,04,04,07,14.30
2019,08,04,04,08,14.30
2019,08,04,04,09,14.30
2019,08,04,04,10,14.30
2019,08,04,04,11,14.20
2019,08,04,04,12,14.20
2019,08,04,04,13,14.30
2019,08,04,04,14,14.30
2019,08,04,04,15,14.30
2019,08,04,04,16,14.30
2019,08,04,04,17,14.30
2019,08,04,04,18,14.30
2019,08,04,04,19,14.30
2019,08,04,04,20,14.30
2019,08,04,04,21,14.30
2019,08,04,04,22,14.30
2019,08,04,04,23,14.30
2019,08,04,04,24,14.30
2019,08,04,04,25,14.30
2019,08,04,04,26,14.20
2019,08,04,04,27,14.20
2019,08,04,04,28,14.20
2019,08,04,04,29,14.20
2019,08,04,04,30,14.20
2019,08,04,04,31,14.20
2019,08,04,04,32,14.20
2019,08,04,04,33,14.20
2019,08,04,04,34,14.20
2019,08,04,04,35,14.20
2019,08,04,04,36,14.20
2019,08,04,04,37,14.20
2019,08,04,04,38,14.10
2019,08,04,04,39,14.10
2019,08,04,04,40,14.10
2019,08,04,04,41,14.10
2019,08,04,04,42,14.10
2019,08,04,04,43,14.10
2019,08,04,04,44,14.10
2019,08,04,04,45,14.00
2019,08,04,04,46,14.00
2019,08,04,04,47,14.00
2019,08,04,04,48,14.00
2019,08,04,04,49,14.00
2019,08,04,04,50,14.00
2019,08,04,04,51,13.90
2019,08,04,04,52,13.90
2019,08,04,04,53,13.90
2019,08,04,04,54,13.90
2019,08,04,04,55,13.90
2019,08,04,04,56,13.90
2019,08,04,04,57,13.90
2019,08,04,04,58,13.90
2019,08,04,04,59,13.90
2019,08,04,05,00,14.00
2019,08,04,05,01,14.00
2019,08,04,05,02,14.10
2019,08,04,05,03,14.10
2019,08,04,05,04,14.10
2019,08,04,05,05,14.10
2019,08,04,05,06,14.10
2019,08,04,05,07,14.10
2019,08,04,05,08,14.10
2019,08,04,05,09,14.10
2019,08,04,05,10,14.20
2019,08,04,05,11,14.20
2019,08,04,05,12,14.20
2019,08,04,05,13,14.20
2019,08,04,05,14,14.20
2019,08,04,05,15,14.20
2019,08,04,05,16,14.20
2019,08,04,05,17,14.20
2019,08,04,05,18,14.20
2019,08,04,05,19,14.30
2019,08,04,05,20,14.30
2019,08,04,05,21,14.30
2019,08,04,05,22,14.30
2019,08,04,05,23,14.30
2019,08,04,05,24,14.30
2019,08,04,05,25,14.30
2019,08,04,05,26,14.30
2019,08,04,05,27,14.30
2019,08,04,05,28,14.30
2019,08,04,05,29,14.30
2019,08,04,05,30,14.30
2019,08,04,05,31,14.30
2019,08,04,05,32,14.30
2019,08,04,05,33,14.30
2019,08,04,05,34,14.30
2019,08,04,05,35,14.30
2019,08,04,05,36,14.30
2019,08,04,05,37,14.30
2019,08,04,05,38,14.30
2019,08,04,05,39,14.30
2019,08,04,05,40,14.20
2019,08,04,05,41,14.20
2019,08,04,05,42,14.20
2019,08,04,05,43,14.20
2019,08,04,05,44,14.20
2019,08,04,05,45,14.20
2019,08,04,05,46,14.20
2019,08,04,05,47,14.20
2019,08,04,05,48,14.20
2019,08,04,05,49,14.20
2019,08,04,05,50,14.20
2019,08,04,05,51,14.20
2019,08,04,05,52,14.20
2019,08,04,05,53,14.20
2019,08,04,05,54,14.20
2019,08,04,05,55,14.20
2019,08,04,05,56,14.20
2019,08,04,05,57,14.20
2019,08,04,05,58,14.20
2019,08,04,05,59,14.20
2019,08,04,06,00,14.20
2019,08,04,06,01,14.20
2019,08,04,06,02,14.20
2019,08,04,06,03,14.20
2019,08,04,06,04,14.20
2019,08,04,06,05,14.20
2019,08,04,06,06,14.20
2019,08,04,06,07,14.20
2019,08,04,06,08,14.20
2019,08,04,06,09,14.20
2019,08,04,06,10,14.20
2019,08,04,06,11,14.20
2019,08,04,06,12,14.20
2019,08,04,06,13,14.20
2019,08,04,06,14,14.20
2019,08,04,06,15,14.20
2019,08,04,06,16,14.30
2019,08,04,06,17,14.30
2019,08,04,06,18,14.30
2019,08,04,06,19,14.30
2019,08,04,06,20,14.30
2019,08,04,06,21,14.30
2019,08,04,06,22,14.30
2019,08,04,06,23,14.30
2019,08,04,06,24,14.30
2019,08,04,06,25,14.30
2019,08,04,06,26,14.30
2019,08,04,06,27,14.30
2019,08,04,06,28,14.30
2019,08,04,06,29,14.30
2019,08,04,06,30,14.30
2019,08,04,06,31,14.30
2019,08,04,06,32,14.30
2019,08,04,06,33,14.30
2019,08,04,06,34,14.30
2019,08,04,06,35,14.30
2019,08,04,06,36,14.30
2019,08,04,06,37,14.30
2019,08,04,06,38,14.40
2019,08,04,06,39,14.40
2019,08,04,06,40,14.40
2019,08,04,06,41,14.40
2019,08,04,06,42,14.40
2019,08,04,06,43,14.40
2019,08,04,06,44,14.40
2019,08,04,06,45,14.40
2019,08,04,06,46,14.40
2019,08,04,06,47,14.50
2019,08,04,06,48,14.50
2019,08,04,06,49,14.50
2019,08,04,06,50,14.60
2019,08,04,06,51,14.60
2019,08,04,06,52,14.60
2019,08,04,06,53,14.60
2019,08,04,06,54,14.60
2019,08,04,06,55,14.60
2019,08,04,06,56,14.70
2019,08,04,06,57,14.70
2019,08,04,06,58,14.80
2019,08,04,06,59,14.80
2019,08,04,07,00,14.90
2019,08,04,07,01,14.90
2019,08,04,07,02,14.90
2019,08,04,07,03,15.00
2019,08,04,07,04,15.00
2019,08,04,07,05,15.10
2019,08,04,07,06,15.10
2019,08,04,07,07,15.20
2019,08,04,07,08,15.30
2019,08,04,07,09,15.30
2019,08,04,07,10,15.40
2019,08,04,07,11,15.50
2019,08,04,07,12,15.60
2019,08,04,07,13,15.70
2019,08,04,07,14,15.70
2019,08,04,07,15,15.80
2019,08,04,07,16,15.90
2019,08,04,07,17,16.00
2019,08,04,07,18,16.10
2019,08,04,07,19,16.20
2019,08,04,07,20,16.30
2019,08,04,07,21,16.40
2019,08,04,07,22,16.60
2019,08,04,07,23,16.70
2019,08,04,07,24,16.90
2019,08,04,07,25,17.00
2019,08,04,07,26,17.10
2019,08,04,07,27,17.30
2019,08,04,07,28,17.40
2019,08,04,07,29,17.50
2019,08,04,07,30,17.60
2019,08,04,07,31,17.80
2019,08,04,07,32,17.90
2019,08,04,07,33,18.00
2019,08,04,07,34,18.20
2019,08,04,07,35,18.30
2019,08,04,07,36,18.40
2019,08,04,07,37,18.50
2019,08,04,07,38,18.60
2019,08,04,07,39,18.70
2019,08,04,07,40,18.80
2019,08,04,07,41,18.80
2019,08,04,07,42,18.90
2019,08,04,07,43,19.00
2019,08,04,07,44,19.10
2019,08,04,07,45,19.20
2019,08,04,07,46,19.30
2019,08,04,07,47,19.30
2019,08,04,07,48,19.40
2019,08,04,07,49,19.50
2019,08,04,07,50,19.60
2019,08,04,07,51,19.70
2019,08,04,07,52,19.70
2019,08,04,07,53,19.80
2019,08,04,07,54,19.90
2019,08,04,07,55,19.90
2019,08,04,07,56,20.00
2019,08,04,07,57,20.00
2019,08,04,07,58,20.10
2019,08,04,07,59,20.20
2019,08,04,08,00,20.20
2019,08,04,08,01,20.30
2019,08,04,08,02,20.30
2019,08,04,08,03,20.40
2019,08,04,08,04,20.50
2019,08,04,08,05,20.60
2019,08,04,08,06,20.60
2019,08,04,08,07,20.70
2019,08,04,08,08,20.70
2019,08,04,08,09,20.80
2019,08,04,08,10,20.80
2019,08,04,08,11,20.90
2019,08,04,08,12,21.00
2019,08,04,08,13,21.10
2019,08,04,08,14,21.10
2019,08,04,08,15,21.20
2019,08,04,08,16,21.20
2019,08,04,08,17,21.30
2019,08,04,08,18,21.30
2019,08,04,08,19,21.40
2019,08,04,08,20,21.40
2019,08,04,08,21,21.50
2019,08,04,08,22,21.50
2019,08,04,08,23,21.60
2019,08,04,08,24,21.70
2019,08,04,08,25,21.70
2019,08,04,08,26,21.80
2019,08,04,08,27,21.80
2019,08,04,08,28,21.90
2019,08,04,08,29,21.90
2019,08,04,08,30,21.90
2019,08,04,08,31,22.00
2019,08,04,08,32,22.00
2019,08,04,08,33,22.00
2019,08,04,08,34,22.00
2019,08,04,08,35,22.10
2019,08,04,08,36,22.10
2019,08,04,08,37,22.10
2019,08,04,08,38,22.20
2019,08,04,08,39,22.20
2019,08,04,08,40,22.30
2019,08,04,08,41,22.30
2019,08,04,08,42,22.30
2019,08,04,08,43,22.40
2019,08,04,08,44,22.40
2019,08,04,08,45,22.50
2019,08,04,08,46,22.50
2019,08,04,08,47,22.50
2019,08,04,08,48,22.60
2019,08,04,08,49,22.60
2019,08,04,08,50,22.60
2019,08,04,08,51,22.70
2019,08,04,08,52,22.70
2019,08,04,08,53,22.70
2019,08,04,08,54,22.70
2019,08,04,08,55,22.80
2019,08,04,08,56,22.80
2019,08,04,08,57,22.80
2019,08,04,08,58,22.80
2019,08,04,08,59,22.80
2019,08,04,09,00,22.80
2019,08,04,09,01,22.80
2019,08,04,09,02,22.80
2019,08,04,09,03,22.70
2019,08,04,09,04,22.70
2019,08,04,09,05,22.60
2019,08,04,09,06,22.60
2019,08,04,09,07,22.60
2019,08,04,09,08,22.50
2019,08,04,09,09,22.50
2019,08,04,09,10,22.40
2019,08,04,09,11,22.40
2019,08,04,09,12,22.40
2019,08,04,09,13,22.40
2019,08,04,09,14,22.40
2019,08,04,09,15,22.40
2019,08,04,09,16,22.40
2019,08,04,09,17,22.40
2019,08,04,09,18,22.40
2019,08,04,09,19,22.50
2019,08,04,09,20,22.50
2019,08,04,09,21,22.60
2019,08,04,09,22,22.60
2019,08,04,09,23,22.60
2019,08,04,09,24,22.70
2019,08,04,09,25,22.70
2019,08,04,09,26,22.70
2019,08,04,09,27,22.80
2019,08,04,09,28,22.80
2019,08,04,09,29,22.90
2019,08,04,09,30,22.90
2019,08,04,09,31,23.00
2019,08,04,09,32,23.00
2019,08,04,09,33,23.10
2019,08,04,09,34,23.10
2019,08,04,09,35,23.20
2019,08,04,09,36,23.20
2019,08,04,09,37,23.30
2019,08,04,09,38,23.30
2019,08,04,09,39,23.30
2019,08,04,09,40,23.30
2019,08,04,09,41,23.30
2019,08,04,09,42,23.30
2019,08,04,09,43,23.40
2019,08,04,09,44,23.40
2019,08,04,09,45,23.40
2019,08,04,09,46,23.50
2019,08,04,09,47,23.50
2019,08,04,09,48,23.60
2019,08,04,09,49,23.60
2019,08,04,09,50,23.60
2019,08,04,09,51,23.60
2019,08,04,09,52,23.60
2019,08,04,09,53,23.60
2019,08,04,09,54,23.60
2019,08,04,09,55,23.60
2019,08,04,09,56,23.60
2019,08,04,09,57,23.60
2019,08,04,09,58,23.60
2019,08,04,09,59,23.60
2019,08,04,10,00,23.60
2019,08,04,10,01,23.60
2019,08,04,10,02,23.60
2019,08,04,10,03,23.60
2019,08,04,10,04,23.60
2019,08,04,10,05,23.60
2019,08,04,10,06,23.60
2019,08,04,10,07,23.60
2019,08,04,10,08,23.60
2019,08,04,10,09,23.60
2019,08,04,10,10,23.60
2019,08,04,10,11,23.60
2019,08,04,10,12,23.60
2019,08,04,10,13,23.60
2019,08,04,10,14,23.60
2019,08,04,10,15,23.50
2019,08,04,10,16,23.50
2019,08,04,10,17,23.50
2019,08,04,10,18,23.50
2019,08,04,10,19,23.60
2019,08,04,10,20,23.60
2019,08,04,10,21,23.60
2019,08,04,10,22,23.70
2019,08,04,10,23,23.70
2019,08,04,10,24,23.80
2019,08,04,10,25,23.80
2019,08,04,10,26,23.80
2019,08,04,10,27,23.80
2019,08,04,10,28,23.80
2019,08,04,10,29,23.90
2019,08,04,10,30,23.90
2019,08,04,10,31,23.90
2019,08,04,10,32,23.90
2019,08,04,10,33,23.90
2019,08,04,10,34,24.00
2019,08,04,10,35,24.00
2019,08,04,10,36,24.00
2019,08,04,10,37,24.00
2019,08,04,10,38,24.00
2019,08,04,10,39,24.00
2019,08,04,10,40,24.00
2019,08,04,10,41,24.10
2019,08,04,10,42,24.10
2019,08,04,10,43,24.10
2019,08,04,10,44,24.10
2019,08,04,10,45,24.10
2019,08,04,10,46,24.10
2019,08,04,10,47,24.10
2019,08,04,10,48,24.10
2019,08,04,10,49,24.10
2019,08,04,10,50,24.10
2019,08,04,10,51,24.10
2019,08,04,10,52,24.10
2019,08,04,10,53,24.10
2019,08,04,10,54,24.10
2019,08,04,10,55,24.00
2019,08,04,10,56,24.00
2019,08,04,10,57,23.90
2019,08,04,10,58,23.80
2019,08,04,10,59,23.80
2019,08,04,11,00,23.80
2019,08,04,11,01,23.80
2019,08,04,11,02,23.80
2019,08,04,11,03,23.80
2019,08,04,11,04,23.90
2019,08,04,11,05,23.90
2019,08,04,11,06,24.00
2019,08,04,11,07,24.00
2019,08,04,11,08,24.10
2019,08,04,11,09,24.10
2019,08,04,11,10,24.20
2019,08,04,11,11,24.20
2019,08,04,11,12,24.20
2019,08,04,11,13,24.10
2019,08,04,11,14,24.00
2019,08,04,11,15,24.00
2019,08,04,11,16,23.90
2019,08,04,11,17,23.90
2019,08,04,11,18,23.90
2019,08,04,11,19,23.90
2019,08,04,11,20,23.90
2019,08,04,11,21,23.90
2019,08,04,11,22,23.90
2019,08,04,11,23,23.90
2019,08,04,11,24,23.90
2019,08,04,11,25,23.90
2019,08,04,11,26,23.90
2019,08,04,11,27,23.90
2019,08,04,11,28,24.00
2019,08,04,11,29,24.00
2019,08,04,11,30,24.00
2019,08,04,11,31,24.10
2019,08,04,11,32,24.10
2019,08,04,11,33,24.20
2019,08,04,11,34,24.20
2019,08,04,11,35,24.20
2019,08,04,11,36,24.20
2019,08,04,11,37,24.30
2019,08,04,11,38,24.30
2019,08,04,11,39,24.30
2019,08,04,11,40,24.40
2019,08,04,11,41,24.40
2019,08,04,11,42,24.40
2019,08,04,11,43,24.50
2019,08,04,11,44,24.60
2019,08,04,11,45,24.60
2019,08,04,11,46,24.60
2019,08,04,11,47,24.70
2019,08,04,11,48,24.70
2019,08,04,11,49,24.80
2019,08,04,11,50,24.80
2019,08,04,11,51,24.80
2019,08,04,11,52,24.80
2019,08,04,11,53,24.80
2019,08,04,11,54,24.80
2019,08,04,11,55,24.80
2019,08,04,11,56,24.90
2019,08,04,11,57,24.90
2019,08,04,11,58,24.90
2019,08,04,11,59,24.90
2019,08,04,12,00,25.00
2019,08,04,12,01,25.00
2019,08,04,12,02,25.00
2019,08,04,12,03,25.00
2019,08,04,12,04,25.00
2019,08,04,12,05,25.00
2019,08,04,12,06,25.00
2019,08,04,12,07,25.10
2019,08,04,12,08,25.10
2019,08,04,12,09,25.10
2019,08,04,12,10,25.10
2019,08,04,12,11,25.10
2019,08,04,12,12,25.10
2019,08,04,12,13,25.10
2019,08,04,12,14,25.10
2019,08,04,12,15,25.10
2019,08,04,12,16,25.10
2019,08,04,12,17,25.20
2019,08,04,12,18,25.20
2019,08,04,12,19,25.30
2019,08,04,12,20,25.30
2019,08,04,12,21,25.30
2019,08,04,12,22,25.40
2019,08,04,12,23,25.40
2019,08,04,12,24,25.50
2019,08,04,12,25,25.50
2019,08,04,12,26,25.60
2019,08,04,12,27,25.60
2019,08,04,12,28,25.50
2019,08,04,12,29,25.50
2019,08,04,12,30,25.50
2019,08,04,12,31,25.40
2019,08,04,12,32,25.40
2019,08,04,12,33,25.30
2019,08,04,12,34,25.30
2019,08,04,12,35,25.30
2019,08,04,12,36,25.30
2019,08,04,12,37,25.30
2019,08,04,12,38,25.30
2019,08,04,12,39,25.30
2019,08,04,12,40,25.30
2019,08,04,12,41,25.30
2019,08,04,12,42,25.30
2019,08,04,12,43,25.30
2019,08,04,12,44,25.40
2019,08,04,12,45,25.40
2019,08,04,12,46,25.50
2019,08,04,12,47,25.50
2019,08,04,12,48,25.50
2019,08,04,12,49,25.50
2019,08,04,12,50,25.50
2019,08,04,12,51,25.50
2019,08,04,12,52,25.50
2019,08,04,12,53,25.50
2019,08,04,12,54,25.50
2019,08,04,12,55,25.60
2019,08,04,12,56,25.60
2019,08,04,12,57,25.60
2019,08,04,12,58,25.60
2019,08,04,12,59,25.70
2019,08,04,13,00,25.70
2019,08,04,13,01,25.70
2019,08,04,13,02,25.70
2019,08,04,13,03,25.70
2019,08,04,13,04,25.70
2019,08,04,13,05,25.70
2019,08,04,13,06,25.70
2019,08,04,13,07,25.70
2019,08,04,13,08,25.70
2019,08,04,13,09,25.80
2019,08,04,13,10,25.80
2019,08,04,13,11,25.80
2019,08,04,13,12,25.80
2019,08,04,13,13,25.80
2019,08,04,13,14,25.80
2019,08,04,13,15,25.80
2019,08,04,13,16,25.80
2019,08,04,13,17,25.80
2019,08,04,13,18,25.80
2019,08,04,13,19,25.80
2019,08,04,13,20,25.90
2019,08,04,13,21,25.90
2019,08,04,13,22,25.90
2019,08,04,13,23,25.90
2019,08,04,13,24,26.00
2019,08,04,13,25,26.00
2019,08,04,13,26,26.10
2019,08,04,13,27,26.10
2019,08,04,13,28,26.10
2019,08,04,13,29,26.10
2019,08,04,13,30,26.10
2019,08,04,13,31,26.10
2019,08,04,13,32,26.10
2019,08,04,13,33,26.10
2019,08,04,13,34,26.00
2019,08,04,13,35,26.00
2019,08,04,13,36,26.00
2019,08,04,13,37,26.00
2019,08,04,13,38,26.00
2019,08,04,13,39,26.00
2019,08,04,13,40,26.00
2019,08,04,13,41,26.00
2019,08,04,13,42,26.10
2019,08,04,13,43,26.10
2019,08,04,13,44,26.10
2019,08,04,13,45,26.10
2019,08,04,13,46,26.10
2019,08,04,13,47,26.00
2019,08,04,13,48,26.00
2019,08,04,13,49,25.90
2019,08,04,13,50,25.90
2019,08,04,13,51,25.90
2019,08,04,13,52,25.90
2019,08,04,13,53,25.90
2019,08,04,13,54,25.90
2019,08,04,13,55,25.90
2019,08,04,13,56,26.00
2019,08,04,13,57,26.00
2019,08,04,13,58,26.00
2019,08,04,13,59,26.10
2019,08,04,14,00,26.00
2019,08,04,14,01,26.00
2019,08,04,14,02,26.00
2019,08,04,14,03,26.00
2019,08,04,14,04,26.00
2019,08,04,14,05,26.00
2019,08,04,14,06,26.00
2019,08,04,14,07,26.00
2019,08,04,14,08,26.00
2019,08,04,14,09,25.90
2019,08,04,14,10,25.80
2019,08,04,14,11,25.80
2019,08,04,14,12,25.70
2019,08,04,14,13,25.70
2019,08,04,14,14,25.70
2019,08,04,14,15,25.70
2019,08,04,14,16,25.70
2019,08,04,14,17,25.70
2019,08,04,14,18,25.80
2019,08,04,14,19,25.80
2019,08,04,14,20,25.80
2019,08,04,14,21,25.70
2019,08,04,14,22,25.70
2019,08,04,14,23,25.70
2019,08,04,14,24,25.70
2019,08,04,14,25,25.70
2019,08,04,14,26,25.70
2019,08,04,14,27,25.70
2019,08,04,14,28,25.80
2019,08,04,14,29,25.80
2019,08,04,14,30,25.90
2019,08,04,14,31,25.90
2019,08,04,14,32,26.00
2019,08,04,14,33,26.00
2019,08,04,14,34,26.10
2019,08,04,14,35,26.10
2019,08,04,14,36,26.10
2019,08,04,14,37,26.10
2019,08,04,14,38,26.10
2019,08,04,14,39,26.10
2019,08,04,14,40,26.00
2019,08,04,14,41,26.00
2019,08,04,14,42,26.00
2019,08,04,14,43,26.00
2019,08,04,14,44,26.10
2019,08,04,14,45,26.10
2019,08,04,14,46,26.10
2019,08,04,14,47,26.10
2019,08,04,14,48,26.20
2019,08,04,14,49,26.20
2019,08,04,14,50,26.10
2019,08,04,14,51,26.10
2019,08,04,14,52,26.10
2019,08,04,14,53,26.10
2019,08,04,14,54,26.10
2019,08,04,14,55,26.10
2019,08,04,14,56,26.10
2019,08,04,14,57,26.10
2019,08,04,14,58,26.10
2019,08,04,14,59,26.10
2019,08,04,15,00,26.10
2019,08,04,15,01,26.10
2019,08,04,15,02,26.10
2019,08,04,15,03,26.20
2019,08,04,15,04,26.20
2019,08,04,15,05,26.20
2019,08,04,15,06,26.20
2019,08,04,15,07,26.20
2019,08,04,15,08,26.30
2019,08,04,15,09,26.30
2019,08,04,15,10,26.30
2019,08,04,15,11,26.30
2019,08,04,15,12,26.40
2019,08,04,15,13,26.40
2019,08,04,15,14,26.40
2019,08,04,15,15,26.50
2019,08,04,15,16,26.50
2019,08,04,15,17,26.50
2019,08,04,15,18,26.60
2019,08,04,15,19,26.60
2019,08,04,15,20,26.60
2019,08,04,15,21,26.60
2019,08,04,15,22,26.60
2019,08,04,15,23,26.60
2019,08,04,15,24,26.60
2019,08,04,15,25,26.60
2019,08,04,15,26,26.60
2019,08,04,15,27,26.60
2019,08,04,15,28,26.60
2019,08,04,15,29,26.60
2019,08,04,15,30,26.60
2019,08,04,15,31,26.70
2019,08,04,15,32,26.70
2019,08,04,15,33,26.70
2019,08,04,15,34,26.70
2019,08,04,15,35,26.80
2019,08,04,15,36,26.80
2019,08,04,15,37,26.80
2019,08,04,15,38,26.80
2019,08,04,15,39,26.90
2019,08,04,15,40,26.90
2019,08,04,15,41,27.00
2019,08,04,15,42,27.00
2019,08,04,15,43,27.10
2019,08,04,15,44,27.10
2019,08,04,15,45,27.10
2019,08,04,15,46,27.20
2019,08,04,15,47,27.20
2019,08,04,15,48,27.20
2019,08,04,15,49,27.20
2019,08,04,15,50,27.30
2019,08,04,15,51,27.30
2019,08,04,15,52,27.30
2019,08,04,15,53,27.30
2019,08,04,15,54,27.40
2019,08,04,15,55,27.40
2019,08,04,15,56,27.40
2019,08,04,15,57,27.50
2019,08,04,15,58,27.50
2019,08,04,15,59,27.50
2019,08,04,16,00,27.60
2019,08,04,16,01,27.60
2019,08,04,16,02,27.60
2019,08,04,16,03,27.70
2019,08,04,16,04,27.70
2019,08,04,16,05,27.70
2019,08,04,16,06,27.70
2019,08,04,16,07,27.70
2019,08,04,16,08,27.70
2019,08,04,16,09,27.70
2019,08,04,16,10,27.70
2019,08,04,16,11,27.70
2019,08,04,16,12,27.70
2019,08,04,16,13,27.70
2019,08,04,16,14,27.70
2019,08,04,16,15,27.70
2019,08,04,16,16,27.80
2019,08,04,16,17,27.80
2019,08,04,16,18,27.80
2019,08,04,16,19,27.90
2019,08,04,16,20,27.90
2019,08,04,16,21,27.90
2019,08,04,16,22,27.90
2019,08,04,16,23,27.90
2019,08,04,16,24,28.00
2019,08,04,16,25,28.00
2019,08,04,16,26,28.00
2019,08,04,16,27,28.00
2019,08,04,16,28,28.10
2019,08,04,16,29,28.10
2019,08,04,16,30,28.10
2019,08,04,16,31,28.10
2019,08,04,16,32,28.10
2019,08,04,16,33,28.10
2019,08,04,16,34,28.10
2019,08,04,16,35,28.10
2019,08,04,16,36,28.10
2019,08,04,16,37,28.20
2019,08,04,16,38,28.20
2019,08,04,16,39,28.20
2019,08,04,16,40,28.20
2019,08,04,16,41,28.20
2019,08,04,16,42,28.20
2019,08,04,16,43,28.20
2019,08,04,16,44,28.10
2019,08,04,16,45,28.10
2019,08,04,16,46,28.10
2019,08,04,16,47,28.10
2019,08,04,16,48,28.10
2019,08,04,16,49,28.20
2019,08,04,16,50,28.20
2019,08,04,16,51,28.20
2019,08,04,16,52,28.20
2019,08,04,16,53,28.30
2019,08,04,16,54,28.30
2019,08,04,16,55,28.30
2019,08,04,16,56,28.30
2019,08,04,16,57,28.30
2019,08,04,16,58,28.40
2019,08,04,16,59,28.40
2019,08,04,17,00,28.40
2019,08,04,17,01,28.40
2019,08,04,17,02,28.40
2019,08,04,17,03,28.50
2019,08,04,17,04,28.50
2019,08,04,17,05,28.60
2019,08,04,17,06,28.60
2019,08,04,17,07,28.50
2019,08,04,17,08,28.50
2019,08,04,17,09,28.60
2019,08,04,17,10,28.60
2019,08,04,17,11,28.60
2019,08,04,17,12,28.60
2019,08,04,17,13,28.70
2019,08,04,17,14,28.70
2019,08,04,17,15,28.70
2019,08,04,17,16,28.70
2019,08,04,17,17,28.70
2019,08,04,17,18,28.70
2019,08,04,17,19,28.70